Location: Caltech
(34.1382°N, 118.1253°W)
Time: 21:44:09
(UTC-07:00)

Cosmos 44 Rocket - Visible Passes

Search period start: 27 July 2017 00:00
Search period end: 06 August 2017 00:00
Orbit: 660 x 730 km, 65.1° (Epoch: 26 July)

Date Brightness Start Highest point End Pass type
(mag) Time Alt. Az. Time Alt. Az. Time Alt. Az.
27 Jul 5.5 01:48:26 10° N 01:51:28 21° NE 01:51:28 21° NE visible
27 Jul 5.4 03:29:18 10° NW 03:30:05 14° NW 03:30:05 14° NW visible
28 Jul 5.3 02:29:26 10° NNW 02:31:06 22° NNW 02:31:06 22° NNW visible
29 Jul 5.6 01:30:19 10° N 01:32:16 20° NNE 01:32:16 20° NNE visible
30 Jul 6.1 00:32:37 10° NNE 00:33:35 11° NE 00:33:35 11° NE visible
30 Jul 5.8 02:11:38 10° NNW 02:12:15 14° NNW 02:12:15 14° NNW visible
31 Jul 5.8 01:12:18 10° NNW 01:13:39 18° N 01:13:39 18° N visible
01 Aug 6.0 00:13:56 10° NNE 00:15:09 13° NNE 00:15:09 13° NNE visible
02 Aug 5.9 00:54:22 10° NNW 00:55:22 16° NNW 00:55:22 16° NNW visible
02 Aug 5.8 23:55:38 10° N 23:57:00 15° NNE 23:57:00 15° NNE visible
04 Aug 6.0 00:36:30 10° NNW 00:37:21 15° NNW 00:37:21 15° NNW visible
04 Aug 5.7 23:37:28 10° N 23:39:04 18° NNE 23:39:04 18° NNE visible
05 Aug 5.8 22:40:16 10° NNE 22:40:49 10° NE 22:40:49 10° NE visible
